Vorticity
9 12 7 16 27 14 -9 -5 21 -2 17 13 9 5 9 10 5 2 7 4 -0 6 -8 3 4 -2 -4 -4 3 8 3 2 4 4 8 8 6 9 15 9 2 4 2 3
15 10 -25 8 12 3 -5 4 53 5 21 -0 17 15 12 7 7 3 6 4 2 12 -5 7 4 5 0 0 1 2 3 7 6 18 7 11 8 11 8 5 3 6 4 1
27 -3 8 -4 14 -2 16 34 -5 -2 7 13 6 8 4 5 6 10 7 6 6 6 -5 8 9 3 -2 3 8 7 16 13 12 -0 13 10 10 14 3 3 2 5 -0 -2
37 -1 15 22 -8 11 8 -13 24 -6 10 5 2 13 12 22 8 10 11 9 6 7 3 -0 9 5 8 11 11 18 6 5 5 12 9 10 11 -4 1 9 -3 2 -5 -5
4 5 2 6 19 14 5 5 17 4 4 4 12 12 34 5 14 3 14 9 10 9 3 2 -0 10 21 20 16 6 5 6 13 11 0 14 -2 1 7 -3 6 1 5 -6
-12 1 1 67 6 11 8 3 7 5 8 5 10 -25 28 -8 23 21 10 11 12 1 7 17 9 3 18 14 -2 1 7 6 10 5 5 5 8 7 4 6 3 -9 6 4
2 4 13 3 3 8 7 4 13 17 35 -3 11 39 -8 41 25 16 51 15 1 26 18 6 -4 3 25 1 4 4 7 5 6 7 7 3 4 4 1 6 -2 9 0 13
22 46 -2 19 -2 2 10 3 -3 7 -2 -8 8 7 30 -4 3 54 13 2 20 6 8 5 10 10 2 6 0 6 5 3 5 5 3 7 8 7 0 4 -1 -10 20 11
-1 3 2 9 3 6 17 7 10 12 6 19 2 10 18 13 21 23 11 14 6 3 9 5 10 4 3 5 0 7 6 3 6 5 4 6 2 10 3 1 -12 15 15 8
4 7 11 14 9 5 5 -9 7 13 11 9 5 48 44 6 11 20 9 9 10 6 4 7 9 4 3 4 1 5 7 2 1 1 6 4 6 6 -10 -14 8 19 6 7
9 -1 21 5 7 10 5 13 6 2 9 9 11 11 4 8 14 11 14 8 6 7 8 5 11 6 6 5 4 3 3 2 -2 6 7 9 1 2 -4 28 14 6 6 8
2 2 8 -5 19 7 1 6 14 1 7 12 -0 3 7 11 2 13 12 14 10 4 11 7 4 11 4 6 4 7 5 -2 -1 4 11 9 7 8 -7 18 9 14 7 7
8 6 14 14 3 19 6 15 5 10 12 5 -9 -4 12 -15 2 20 15 13 14 11 14 10 4 3 -4 5 11 6 7 1 2 6 11 8 2 15 7 4 9 7 8 5
6 6 -5 -0 -10 -7 19 15 12 11 6 2 7 6 6 4 6 3 6 13 9 13 13 11 10 8 6 -5 6 11 2 3 3 11 11 12 -2 14 6 18 17 8 4 5
11 9 9 11 1 11 -0 4 12 14 7 -2 -2 4 4 -7 -0 -13 13 9 13 19 14 13 11 9 11 5 -2 11 4 3 5 13 13 5 12 2 4 12 8 10 8 7
14 4 18 12 20 3 9 8 7 7 10 11 10 9 4 -2 24 22 -1 13 14 8 16 15 13 12 9 11 10 2 7 3 9 13 22 -3 23 1 18 13 6 11 -3 8
6 9 13 21 15 4 30 17 25 21 10 8 7 7 7 13 2 11 5 6 12 6 12 9 10 7 20 9 7 12 1 -3 8 16 12 8 12 14 10 4 8 -5 17 6
6 8 8 10 13 13 21 12 -2 8 13 22 23 26 11 8 4 3 15 27 19 4 12 14 10 7 14 16 14 16 8 -9 10 21 17 29 20 4 13 11 0 19 6 8
0 14 2 -1 17 -11 12 27 5 8 3 14 15 12 12 15 9 8 29 2 5 1 7 -13 14 22 15 23 9 5 10 21 10 15 12 16 15 16 8 0 12 6 7 14
23 11 1 19 7 -2 11 8 11 -1 11 11 3 3 -3 -16 16 15 -3 2 8 6 2 16 6 9 12 8 6 7 6 12 8 9 13 1 8 1 -3 9 9 5 10 11
16 12 4 1 2 15 10 7 2 26 5 6 5 -10 8 13 9 -5 5 5 10 8 19 6 14 3 10 -3 -3 5 16 4 15 29 33 2 -6 20 12 1 6 9 13 11
12 17 23 16 6 12 15 24 19 8 0 -15 1 11 11 12 11 14 16 11 3 3 6 -1 5 14 0 2 6 15 17 3 41 13 -3 10 11 6 3 5 5 6 10 12
14 -2 9 1 17 3 12 -7 -3 15 8 12 12 6 7 4 10 7 13 18 5 6 5 1 11 14 18 25 20 5 35 15 21 19 8 19 11 6 4 3 6 14 11 13
9 4 3 2 16 14 16 -2 14 1 -2 4 3 10 9 6 10 11 7 3 -0 1 8 13 13 14 12 7 12 30 34 32 19 25 6 11 8 5 1 5 11 10 11 9
5 11 16 9 11 4 19 12 -1 -6 -8 2 9 10 8 11 4 3 7 14 15 14 16 13 9 15 13 19 33 27 15 10 17 17 5 3 4 -0 9 6 9 11 11 11
11 11 12 22 3 5 -1 -7 0 -3 5 12 13 7 5 3 14 17 16 13 10 13 18 17 17 26 25 19 11 -3 17 15 4 4 5 3 5 6 8 8 8 11 13 11
Height
3118 3119 3119 3117 3122 3123 3123 3123 3121 3122 3124 3125 3126 3128 3132 3133 3136 3138 3140 3140 3141 3142 3142 3143 3145 3145 3146 3143 3146 3148 3149 3149 3149 3149 3149 3150 3150 3149 3148 3147 3147 3147 3146 3146
3120 3118 3120 3122 3123 3123 3122 3122 3119 3122 3122 3125 3125 3127 3128 3131 3133 3135 3137 3138 3139 3139 3138 3141 3143 3144 3142 3141 3141 3144 3145 3145 3146 3146 3146 3146 3146 3145 3144 3144 3144 3144 3143 3143
3121 3119 3121 3121 3122 3121 3119 3119 3121 3121 3123 3124 3125 3126 3127 3130 3131 3134 3134 3136 3137 3137 3136 3137 3139 3140 3140 3139 3140 3140 3142 3142 3143 3142 3143 3142 3141 3141 3141 3140 3140 3140 3139 3137
3117 3118 3119 3119 3120 3120 3117 3118 3120 3120 3122 3123 3124 3122 3123 3127 3128 3127 3130 3130 3132 3135 3133 3133 3134 3135 3135 3137 3137 3137 3137 3138 3139 3138 3137 3137 3137 3136 3135 3134 3135 3134 3134 3132
3121 3116 3118 3117 3120 3119 3120 3118 3118 3120 3120 3120 3124 3125 3120 3122 3121 3125 3127 3128 3129 3130 3129 3127 3128 3130 3132 3132 3134 3135 3136 3135 3135 3135 3135 3136 3131 3131 3131 3129 3129 3129 3126 3124
3116 3117 3113 3118 3116 3118 3118 3118 3118 3118 3117 3119 3119 3123 3120 3119 3115 3122 3125 3126 3127 3123 3123 3125 3122 3125 3127 3129 3130 3131 3132 3131 3132 3133 3132 3132 3131 3129 3128 3127 3127 3123 3120 3116
3113 3111 3115 3115 3116 3116 3117 3116 3117 3122 3121 3114 3110 3114 3107 3108 3113 3110 3111 3120 3120 3118 3119 3121 3120 3120 3124 3125 3126 3127 3127 3127 3128 3128 3129 3128 3126 3125 3123 3123 3119 3118 3114 3109
3110 3111 3114 3113 3115 3114 3115 3115 3118 3127 3130 3113 3111 3108 3107 3108 3111 3112 3114 3115 3115 3115 3116 3117 3118 3118 3119 3122 3123 3123 3123 3123 3123 3124 3124 3123 3122 3120 3117 3116 3114 3109 3105 3102
3111 3113 3112 3112 3113 3114 3112 3114 3116 3116 3116 3113 3111 3107 3108 3107 3108 3111 3111 3111 3112 3113 3113 3114 3116 3116 3117 3119 3120 3120 3119 3118 3119 3119 3118 3117 3115 3113 3111 3108 3103 3099 3096 3093
3106 3112 3109 3111 3111 3111 3112 3114 3114 3113 3114 3113 3106 3102 3102 3105 3108 3109 3110 3110 3111 3112 3112 3112 3113 3113 3114 3115 3116 3116 3115 3112 3113 3113 3111 3110 3108 3106 3103 3099 3094 3091 3087 3084
3108 3109 3109 3109 3109 3109 3110 3110 3112 3113 3112 3111 3110 3107 3108 3108 3107 3109 3111 3109 3109 3109 3109 3109 3110 3109 3109 3109 3109 3111 3110 3106 3106 3106 3105 3103 3100 3097 3095 3090 3086 3083 3079 3075
3105 3104 3104 3105 3106 3106 3107 3108 3109 3110 3112 3111 3112 3109 3107 3106 3107 3108 3109 3110 3108 3107 3107 3106 3106 3106 3104 3103 3103 3105 3105 3100 3099 3098 3098 3095 3092 3089 3085 3081 3077 3074 3070 3067
3101 3103 3104 3104 3105 3104 3105 3106 3107 3108 3108 3109 3112 3109 3106 3105 3106 3106 3106 3107 3108 3106 3106 3106 3103 3102 3100 3098 3098 3097 3098 3096 3093 3091 3090 3088 3084 3080 3076 3073 3069 3067 3064 3059
3099 3101 3101 3103 3102 3102 3101 3103 3104 3106 3106 3107 3107 3106 3107 3104 3102 3103 3102 3103 3105 3104 3104 3104 3103 3098 3095 3093 3092 3091 3089 3088 3086 3085 3084 3080 3076 3071 3067 3064 3061 3060 3057 3052
3097 3098 3100 3099 3099 3100 3100 3100 3101 3101 3102 3104 3104 3104 3105 3104 3102 3103 3101 3100 3100 3101 3102 3100 3100 3097 3092 3089 3088 3086 3083 3079 3078 3079 3076 3072 3069 3064 3060 3056 3055 3052 3049 3044
3093 3095 3096 3096 3097 3097 3097 3098 3098 3098 3098 3099 3100 3100 3102 3101 3097 3097 3097 3096 3097 3097 3096 3097 3095 3095 3090 3086 3083 3080 3076 3073 3072 3073 3069 3066 3061 3055 3052 3049 3048 3044 3040 3035
3091 3092 3093 3094 3094 3094 3093 3092 3092 3092 3095 3096 3096 3098 3098 3097 3095 3092 3092 3092 3091 3090 3090 3090 3089 3087 3086 3083 3079 3075 3071 3067 3065 3066 3062 3057 3052 3047 3044 3042 3039 3034 3030 3029
3088 3089 3091 3091 3092 3093 3089 3088 3088 3088 3090 3092 3093 3091 3092 3089 3089 3090 3088 3086 3086 3085 3084 3082 3082 3081 3079 3077 3073 3071 3066 3061 3061 3057 3053 3048 3041 3037 3035 3032 3030 3026 3024 3021
3084 3085 3087 3089 3089 3088 3085 3087 3086 3086 3089 3087 3087 3087 3088 3086 3088 3088 3083 3081 3080 3080 3079 3077 3076 3073 3071 3069 3065 3063 3059 3057 3053 3046 3042 3037 3034 3032 3029 3026 3023 3021 3017 3013
3079 3082 3085 3086 3087 3086 3084 3083 3084 3084 3087 3084 3084 3084 3084 3084 3084 3083 3079 3076 3075 3074 3071 3069 3067 3066 3064 3060 3057 3053 3050 3046 3041 3035 3029 3026 3025 3023 3023 3020 3016 3014 3009 3005
3075 3077 3080 3082 3083 3082 3082 3080 3081 3084 3087 3081 3082 3081 3080 3080 3080 3077 3074 3073 3071 3067 3064 3062 3059 3058 3055 3050 3046 3043 3041 3036 3030 3024 3021 3017 3017 3016 3014 3012 3011 3006 3003 2998
3072 3074 3076 3079 3080 3080 3078 3078 3081 3080 3078 3078 3077 3076 3074 3072 3072 3070 3068 3066 3062 3061 3056 3053 3050 3049 3046 3042 3037 3035 3031 3024 3019 3016 3018 3015 3015 3013 3011 3007 3004 2999 2994 2990
3072 3072 3073 3075 3076 3075 3075 3075 3075 3073 3074 3073 3071 3070 3068 3066 3065 3063 3061 3059 3055 3053 3048 3043 3043 3042 3040 3037 3032 3028 3022 3019 3017 3016 3015 3012 3008 3006 3005 3001 2996 2991 2987 2983
3067 3067 3069 3071 3073 3074 3073 3072 3070 3068 3066 3066 3066 3064 3061 3060 3058 3057 3054 3050 3047 3043 3040 3038 3036 3033 3030 3027 3024 3020 3017 3017 3016 3012 3009 3007 3004 3002 2998 2994 2989 2983 2980 2976
3063 3063 3065 3066 3067 3068 3068 3062 3062 3062 3061 3060 3059 3055 3055 3054 3051 3048 3044 3041 3039 3037 3034 3030 3027 3024 3022 3019 3016 3016 3014 3012 3009 3006 3003 3001 2998 2995 2991 2986 2982 2977 2972 2968
3058 3059 3060 3061 3059 3062 3059 3055 3057 3056 3055 3054 3052 3048 3049 3046 3043 3040 3038 3035 3032 3029 3026 3023 3020 3017 3015 3014 3012 3010 3007 3004 3001 3000 2998 2995 2992 2987 2983 2978 2975 2971 2966 2962